Regional Weather Roundup
Issued by NWS New Orleans/Baton Rouge, LA

Home | Current Version | Previous Version | Graphics & Text | Print | Product List | Glossary On
Versions: 1 2 3 4 5 6 7 8 9 10 11 12 13 14 15 16 17 18 19 20 21 22 23 24 25 26 27 28 29 30 31 32 33 34 35 36 37 38 39 40 41 42 43 44 45 46 47 48 49 50
905
ASUS44 KLIX 291801
RWRLIX
NEW ORLEANS REGIONAL WEATHER ROUNDUP
NATIONAL WEATHER SERVICE NEW ORLEANS LA
100 PM CDT FRI AUG 29 2014

NOTE: "FAIR" INDICATES FEW OR NO CLOUDS BELOW 12,000 FEET WITH NO
      SIGNIFICANT WEATHER AND/OR OBSTRUCTIONS TO VISIBILITY.
      SKY/WX - SKY CONDITION AND SIGNIFICANT WEATHER.
      TMP - AIR TEMPERATURE.     DP    - DEWPOINT TEMPERATURE.
      RH  - RELATIVE HUMIDITY.   PRES  - PRESSURE.
      HI  - HEAT INDEX.          WCI   - WIND CHILL INDEX.

*  THESE STATIONS ARE NOT NWS OR FAA STATIONS AND ARE NOT UNDER
   NWS QUALITY CONTROL.

LAZ038-040-048-061>063-065>067-069-291900-
SOUTHEAST LOUISIANA

CITY           SKY/WX    TMP DP  RH WIND       PRES   REMARKS
N.O. AUDUBON   NOT AVBL
N.O. INTL ARPT TSTM      85  74  69 SE12      30.00R
6HR MIN TEMP:  80; 6HR MAX TEMP:  88; 6HR PCP: TRACE;

N.O. LAKEFRONT CLOUDY    82  76  81 SW3       29.99S THUNDER
6HR MIN TEMP:  82; 6HR MAX TEMP:  88; 6HR PCP:  0.04;

N.O. DOWNTOWN*   N/A     84  73  70 S15G23    30.01R
6HR MIN TEMP:  82; 6HR MAX TEMP:  90;

SLIDELL        CLOUDY    86  75  69 SE6       29.98F HX  95
6HR MIN TEMP:  72; 6HR MAX TEMP:  90;

BATON ROUGE    CLOUDY    85  74  69 E10       29.99R
6HR MIN TEMP:  74; 6HR MAX TEMP:  87;

BOOTHVILLE     LGT RAIN  79  75  87 CALM      29.97F
6HR MIN TEMP:  77; 6HR MAX TEMP:  88; 6HR PCP:  0.04;

BELLE CHASSE   TSTM      78  72  81 SW12      30.00R
6HR MIN TEMP:  77; 6HR MAX TEMP:  88; 6HR PCP:  0.01;

BOGALUSA*        N/A     90  72  55 SE7       30.00S HX  96
6HR MIN TEMP:  72; 6HR MAX TEMP:  92;

GALLIANO*      NOT AVBL
NEW ROADS*       N/A     87  74  65 SE10      29.98R HX  95
6HR MIN TEMP:  74; 6HR MAX TEMP:  87;

GONZALES*      MOCLDY    83  80  89 CALM      29.98R HX  96
6HR MIN TEMP:  73; 6HR MAX TEMP:  86;

HAMMOND*       NOT AVBL
HOUMA*         SHOWER    73  72  94 SE8       30.01R
PORT FOURCHON* MOCLDY    77  73  88 N3        30.00F FOG

$$

MSZ070-080>082-291900-
SOUTHERN MISSISSIPPI

CITY           SKY/WX    TMP DP  RH WIND       PRES   REMARKS
MCCOMB         PTSUNNY   88  68  51 SE9       30.00S
6HR MIN TEMP:  73; 6HR MAX TEMP:  90;

GULFPORT       PTSUNNY   87  76  69 SE17      29.97F HX  97
6HR MIN TEMP:  75; 6HR MAX TEMP:  91; 6HR PCP: TRACE;

BILOXI         PTSUNNY   89  75  64 SE13G20   29.98F HX  99
6HR MIN TEMP:  76; 6HR MAX TEMP:  92;

PASCAGOULA     PTSUNNY   91  75  59 SE13      29.99S HX 101
6HR MIN TEMP:  72; 6HR MAX TEMP:  91;


$$

COASTAL OBSERVATIONS
LAKE AND NEARSHORE STATIONS

STATION/POSITION TIME  TEMP    WIND        PRES    WAVE
                       AIR SEA DIR/SP/G            HT/PER
                 (UTC) (F)     (DEG/KT/KT) (MB)    (FT/S)
PASCAGOULA       1700   88     110/ 11/ 17 1015.2
WAVELAND YACHT   1700   85     140/ 11/ 13 1014.8
GRAND ISLE       1700   77 84  320/  9/ 10 1015.6
SOUTHWEST PASS   1700   82 89  360/  6/  8 1015.3
NEW CANAL        1700   83 84   90/  3/ 15 1015.9
SHELL BEACH      1700   84 81  120/  6/  8 1014.9

OFFSHORE STATIONS

STATION/POSITION TIME  TEMP    WIND        PRES    WAVE
                       AIR SEA DIR/SP/G            HT/PER
                 (UTC) (F)     (DEG/KT/KT) (MB)    (FT/S)
64 S DAUPHIN ISL 1700   83 85  150/ 19/ 21 1015.7

$$




USA.gov is the U.S. government's official web portal to all federal, state and local government web resources and services.